Murray, KY

4:56 AM CDT on September 24, 2017 (GMT -0500)
Kyle-Oakley

Weather History for KCEY - January, 2014

Change the Weather History Date:

Sunday, January 26, 2014

  Actual Average (KPAH) Record (KPAH)
Temperature  
Mean Temperature 40 °F -  
Max Temperature 60 °F 41 °F 72 °F (1950)
Min Temperature 19 °F 24 °F -8 °F (1940)
Degree Days  
Heating Degree Days 26    
Moisture  
Dew Point 23 °F    
Average Humidity 46    
Maximum Humidity 68    
Minimum Humidity 34    
Precipitation  
Precipitation 0.00 in - - ()
Sea Level Pressure  
Sea Level Pressure 29.77 in    
Wind  
Wind Speed 10 mph (SSW)    
Max Wind Speed 24 mph    
Max Gust Speed 33 mph    
Visibility 10 miles    
Events      
Averages and records for this station are not official NWS values.
T = Trace of Precipitation, MM = Missing Value Source: NWS Daily Summary

Daily Weather History Graph

Daily Weather History Graph

Search for Another Location

Airport or City:

Trip Planner

Search our weather history database for the weather conditions in past years. The results will help you decide how hot, cold, wet, or windy it might be!

Date:

Astronomy

Jan. 26, 2014 Rise Set
Actual Time 6:59 AM CST 5:12 PM CST
Civil Twilight 6:32 AM CST 5:40 PM CST
Nautical Twilight 6:00 AM CST 6:11 PM CST
Astronomical Twilight 5:30 AM CST 6:42 PM CST
Moon 2:36 AM CST (1/26) 1:02 PM CST (1/26)
Length of Visible Light 11h 08m
Length of Day
10h 13m
Waning Crescent, 23% of the Moon is Illuminated
Jan 26
Waning Crescent
Jan 30
New
Feb 6
First Quarter
Feb 14
Full
Feb 22
Last Quarter

Hourly Weather History & Observations

Time (CST) Temp. Windchill Dew Point Humidity Pressure Visibility Wind Dir Wind Speed Gust Speed Precip Events Conditions
12:15 AM 19.4 °F 14.3 °F 10.4 °F 68% 29.97 in 10.0 mi SE 3.5 mph - N/A   Clear
12:35 AM 23.0 °F 15.8 °F 10.4 °F 59% 29.97 in 10.0 mi SE 5.8 mph - N/A   Clear
12:55 AM 23.0 °F 15.8 °F 8.6 °F 54% 29.95 in 10.0 mi SE 5.8 mph - N/A   Clear
1:15 AM 24.8 °F 19.1 °F 6.8 °F 46% 29.95 in 10.0 mi ESE 4.6 mph - N/A   Clear
1:35 AM 23.0 °F 17.0 °F 8.6 °F 54% 29.95 in 10.0 mi SE 4.6 mph - N/A   Clear
1:55 AM 23.0 °F 17.0 °F 8.6 °F 54% 29.94 in 10.0 mi SE 4.6 mph - N/A   Clear
2:15 AM 23.0 °F 15.8 °F 8.6 °F 54% 29.93 in 10.0 mi SE 5.8 mph - N/A   Clear
2:35 AM 23.0 °F 15.8 °F 10.4 °F 59% 29.93 in 10.0 mi South 5.8 mph - N/A   Clear
2:55 AM 24.8 °F 16.1 °F 6.8 °F 46% 29.93 in 10.0 mi South 8.1 mph - N/A   Clear
3:15 AM 24.8 °F 14.6 °F 8.6 °F 50% 29.91 in 10.0 mi South 10.4 mph - N/A   Clear
3:35 AM 24.8 °F 15.3 °F 8.6 °F 50% 29.90 in 10.0 mi South 9.2 mph - N/A   Clear
3:55 AM 24.8 °F 16.9 °F 8.6 °F 50% 29.90 in 10.0 mi South 6.9 mph - N/A   Clear
4:15 AM 24.8 °F 16.1 °F 8.6 °F 50% 29.88 in 10.0 mi South 8.1 mph - N/A   Clear
4:35 AM 24.8 °F 17.9 °F 8.6 °F 50% 29.87 in 10.0 mi South 5.8 mph - N/A   Clear
4:55 AM 24.8 °F 16.9 °F 8.6 °F 50% 29.87 in 10.0 mi SSE 6.9 mph - N/A   Clear
5:15 AM 26.6 °F 18.2 °F 8.6 °F 47% 29.86 in 10.0 mi South 8.1 mph - N/A   Clear
5:35 AM 26.6 °F 16.8 °F 8.6 °F 47% 29.84 in 10.0 mi South 10.4 mph - N/A   Clear
5:55 AM 26.6 °F 16.8 °F 10.4 °F 51% 29.82 in 10.0 mi South 10.4 mph - N/A   Clear
6:15 AM 28.4 °F 18.0 °F 10.4 °F 47% 29.79 in 10.0 mi South 12.7 mph 18.4 mph N/A   Clear
6:35 AM 28.4 °F 19.1 °F 10.4 °F 47% 29.79 in 10.0 mi South 10.4 mph - N/A   Clear
6:55 AM 30.2 °F 21.3 °F 10.4 °F 44% 29.79 in 10.0 mi South 10.4 mph 16.1 mph N/A   Clear
7:15 AM 32.0 °F 23.6 °F 12.2 °F 44% 29.80 in 10.0 mi South 10.4 mph 18.4 mph N/A   Clear
7:35 AM 32.0 °F 23.6 °F 14.0 °F 48% 29.79 in 10.0 mi South 10.4 mph - N/A   Clear
7:55 AM 32.0 °F 23.0 °F 15.8 °F 51% 29.78 in 10.0 mi South 11.5 mph 18.4 mph N/A   Clear
8:15 AM 35.6 °F 26.6 °F 17.6 °F 48% 29.78 in 10.0 mi SSW 13.8 mph 21.9 mph N/A   Clear
8:35 AM 37.4 °F 29.8 °F 19.4 °F 48% 29.78 in 10.0 mi SSW 11.5 mph 21.9 mph N/A   Clear
8:55 AM 39.2 °F 32.0 °F 21.2 °F 49% 29.78 in 10.0 mi SW 11.5 mph 23.0 mph N/A   Clear
9:15 AM 41.0 °F 33.9 °F 23.0 °F 49% 29.77 in 10.0 mi SSW 12.7 mph 24.2 mph N/A   Clear
9:35 AM 42.8 °F 35.8 °F 23.0 °F 46% 29.77 in 10.0 mi SSW 13.8 mph 24.2 mph N/A   Clear
9:55 AM 46.4 °F 40.7 °F 24.8 °F 43% 29.77 in 10.0 mi SW 12.7 mph 21.9 mph N/A   Clear
10:15 AM 48.2 °F - 26.6 °F 43% 29.77 in 10.0 mi SW 17.3 mph 24.2 mph N/A   Clear
10:35 AM 50.0 °F - 28.4 °F 43% 29.77 in 10.0 mi SW 17.3 mph 32.2 mph N/A   Clear
10:55 AM 53.6 °F - 28.4 °F 38% 29.77 in 10.0 mi SW 15.0 mph 26.5 mph N/A   Clear
11:15 AM 55.4 °F - 28.4 °F 36% 29.76 in 10.0 mi WSW 19.6 mph 29.9 mph N/A   Clear
11:35 AM 55.4 °F - 30.2 °F 38% 29.75 in 10.0 mi WSW 19.6 mph 28.8 mph N/A   Clear
11:55 AM 57.2 °F - 30.2 °F 36% 29.74 in 10.0 mi WSW 18.4 mph 24.2 mph N/A   Clear
12:15 PM 57.2 °F - 32.0 °F 38% 29.73 in 10.0 mi WSW 21.9 mph 32.2 mph N/A   Clear
12:35 PM 57.2 °F - 32.0 °F 38% 29.72 in 10.0 mi WSW 19.6 mph 28.8 mph N/A   Clear
12:55 PM 59.0 °F - 32.0 °F 36% 29.71 in 10.0 mi WSW 17.3 mph 28.8 mph N/A   Clear
1:15 PM 59.0 °F - 32.0 °F 36% 29.70 in 10.0 mi WSW 17.3 mph 25.3 mph N/A   Clear
1:35 PM 59.0 °F - 32.0 °F 36% 29.69 in 10.0 mi WSW 20.7 mph 28.8 mph N/A   Clear
1:55 PM 59.0 °F - 32.0 °F 36% 29.68 in 10.0 mi SW 16.1 mph 31.1 mph N/A   Clear
2:15 PM 60.8 °F - 32.0 °F 34% 29.67 in 10.0 mi SW 15.0 mph 26.5 mph N/A   Clear
2:35 PM 60.8 °F - 32.0 °F 34% 29.67 in 10.0 mi SW 23.0 mph 33.4 mph N/A   Clear
2:55 PM 60.8 °F - 32.0 °F 34% 29.67 in 10.0 mi WSW 24.2 mph 31.1 mph N/A   Clear
3:15 PM 60.8 °F - 32.0 °F 34% 29.66 in 10.0 mi SW 17.3 mph 26.5 mph N/A   Clear
3:35 PM 59.0 °F - 32.0 °F 36% 29.66 in 10.0 mi WSW 20.7 mph 32.2 mph N/A   Clear
3:55 PM 59.0 °F - 32.0 °F 36% 29.67 in 10.0 mi WSW 17.3 mph 27.6 mph N/A   Clear
4:15 PM 59.0 °F - 32.0 °F 36% 29.66 in 10.0 mi WSW 21.9 mph 33.4 mph N/A   Clear
4:35 PM 57.2 °F - 32.0 °F 38% 29.67 in 10.0 mi SW 12.7 mph 20.7 mph N/A   Clear
4:55 PM 57.2 °F - 32.0 °F 38% 29.68 in 10.0 mi SW 18.4 mph 29.9 mph N/A   Clear
5:15 PM 55.4 °F - 32.0 °F 41% 29.68 in 10.0 mi SW 13.8 mph 26.5 mph N/A   Clear
5:35 PM 53.6 °F - 32.0 °F 44% 29.69 in 10.0 mi SW 12.7 mph 21.9 mph N/A   Clear
5:55 PM 53.6 °F - 32.0 °F 44% 29.69 in 10.0 mi SSW 9.2 mph - N/A   Clear
6:15 PM 53.6 °F - 32.0 °F 44% 29.69 in 10.0 mi SSW 9.2 mph - N/A   Clear
6:35 PM 51.8 °F - 32.0 °F 47% 29.70 in 10.0 mi SSW 9.2 mph - N/A   Clear
6:55 PM 51.8 °F - 32.0 °F 47% 29.70 in 10.0 mi SSW 12.7 mph 18.4 mph N/A   Clear
7:15 PM 51.8 °F - 32.0 °F 47% 29.70 in 10.0 mi SSW 12.7 mph 20.7 mph N/A   Clear
7:35 PM 51.8 °F - 32.0 °F 47% 29.70 in 10.0 mi SW 11.5 mph 19.6 mph N/A   Clear
7:55 PM 50.0 °F - 32.0 °F 50% 29.70 in 10.0 mi SSW 12.7 mph 18.4 mph N/A   Clear
8:15 PM 50.0 °F - 32.0 °F 50% 29.70 in 10.0 mi SSW 12.7 mph 18.4 mph N/A   Clear
8:35 PM 50.0 °F - 32.0 °F 50% 29.70 in 10.0 mi SSW 9.2 mph 20.7 mph N/A   Clear
8:55 PM 50.0 °F - 32.0 °F 50% 29.70 in 10.0 mi SW 13.8 mph 21.9 mph N/A   Clear
9:15 PM 50.0 °F - 32.0 °F 50% 29.70 in 10.0 mi SSW 12.7 mph 20.7 mph N/A   Clear
9:35 PM 50.0 °F - 32.0 °F 50% 29.71 in 10.0 mi SW 16.1 mph - N/A   Clear
9:55 PM 50.0 °F - 32.0 °F 50% 29.72 in 10.0 mi SW 15.0 mph 19.6 mph N/A   Partly Cloudy
10:15 PM 50.0 °F - 32.0 °F 50% 29.73 in 10.0 mi SW 12.7 mph 20.7 mph N/A   Partly Cloudy
10:35 PM 50.0 °F - 32.0 °F 50% 29.74 in 10.0 mi WSW 13.8 mph 21.9 mph N/A   Clear
10:55 PM 50.0 °F - 32.0 °F 50% 29.76 in 10.0 mi West 13.8 mph - N/A   Clear
11:15 PM 48.2 °F - 32.0 °F 54% 29.79 in 10.0 mi WNW 10.4 mph - N/A   Partly Cloudy
11:35 PM 46.4 °F 41.9 °F 32.0 °F 57% 29.79 in 10.0 mi West 9.2 mph - N/A   Partly Cloudy
11:55 PM 44.6 °F 39.2 °F 32.0 °F 61% 29.79 in 10.0 mi West 10.4 mph - N/A   Clear